Regional Weather Roundup
Issued by NWS

Home | Current Version | Previous Version | Text Only | Print | Product List | Glossary Off
Versions: 1 2 3 4 5 6 7 8 9 10 11 12 13 14 15 16 17 18 19 20 21 22 23 24 25 26 27 28 29 30 31 32 33 34 35 36 37 38 39 40 41 42 43 44 45 46 47 48 49 50

000
ASUS43 KLMK 270410
RWRKY
KENTUCKY REGIONAL WEATHER ROUNDUP
NATIONAL WEATHER SERVICE LOUISVILLE KY
1200 AM EDT THU APR 27 2017

NOTE "FAIR" INDICATES FEW OR NO CLOUDS BELOW 12,000 FEET
WITH NO SIGNIFICANT WEATHER AND/OR OBSTRUCTIONS TO VISIBILITY.

KYZ001>023-026-027-061>063-070>075-270500-
WESTERN AND SOUTH CENTRAL KENTUCKY

CITY           SKY/WX    TMP DP  RH WIND       PRES   REMARKS
PADUCAH        TSTM      59  57  93 SE3       29.59R FOG
HENDERSON      LGT RAIN  61  58  90 W8        29.60R
OWENSBORO      CLOUDY    65  58  78 W3        29.57S
HOPKINSVILLE   CLOUDY    73  58  60 S8        29.58R
BOWLING GREEN  PTCLDY    74  59  59 S20G25    29.59S
GLASGOW        PTCLDY    69  56  64 S3        29.60F
$$

KYZ024-025-028>034-038-045-046-053-270500-
NORTH CENTRAL KENTUCKY

CITY           SKY/WX    TMP DP  RH WIND       PRES   REMARKS
LOUISVILLE/SDF MOCLDY    74  57  55 S13       29.56S
LOUISVILLE/LOU CLEAR     73  58  59 S6        29.58R
FORT KNOX      CLOUDY    69  57  64 S12       29.56S
$$

KYZ035>037-039>044-047>052-055>060-089>105-270500-
NORTHEAST KENTUCKY

CITY           SKY/WX    TMP DP  RH WIND       PRES   REMARKS
LEXINGTON      CLOUDY    71  53  52 S12       29.62S
COVINGTON      CLOUDY    67  53  61 S9        29.57F
FRANKFORT      CLEAR     71  53  52 S9        29.59R
$$

KYZ054-064>069-076>088-106>120-270500-
SOUTHEAST KENTUCKY

CITY           SKY/WX    TMP DP  RH WIND       PRES   REMARKS
JACKSON        CLEAR     70  49  47 CALM      29.67F
LONDON         CLEAR     71  56  58 S7        29.68S
SOMERSET       CLOUDY    70  54  56 S5        29.68R
MIDDLESBORO    CLEAR     72  58  62 S9G16     29.72S
MONTICELLO     CLOUDY    74  57  55 S15G36    29.66S
$$





USA.gov is the U.S. government's official web portal to all federal, state and local government web resources and services.